Norfolk, NE

5:21 AM CST on December 13, 2019 (GMT -0600)
Stefan Memorial

Weather History for KOFK - October, 2019

Change the Weather History Date:

Sunday, October 20, 2019

  Actual Average Record
Temperature  
Mean Temperature 52 °F 50 °F  
Max Temperature 62 °F 62 °F 90 °F (1947)
Min Temperature 41 °F 37 °F 15 °F (1989)
Degree Days  
Heating Degree Days 13 16  
Month to date heating degree days 290 244  
Since 1 July heating degree days 320 386  
Cooling Degree Days 0 0  
Month to date cooling degree days 0 8  
Year to date cooling degree days 949 914  
Growing Degree Days 2 (Base 50)    
Moisture  
Dew Point 41 °F    
Average Humidity 67    
Maximum Humidity 83    
Minimum Humidity 51    
Precipitation  
Precipitation 0.01 in 0.06 in 0.70 in (1935)
Month to date precipitation 1.71 1.49  
Year to date precipitation 23.74 24.71  
Snow  
Snow 0.00 in 0.10 in - ()
Month to date snowfall T 0.3  
Since 1 July snowfall T 0.3  
Since 1 September snowfall T 0.3  
Snow Depth 0.00 in    
Sea Level Pressure  
Sea Level Pressure 29.64 in    
Wind  
Wind Speed 13 mph (SSE)    
Max Wind Speed 30 mph    
Max Gust Speed 39 mph    
Visibility 10 miles    
Events Rain    
T = Trace of Precipitation, MM = Missing Value Source: NWS Daily Summary

Daily Weather History Graph

Daily Weather History Graph

Search for Another Location

Airport or City:

Astronomy

Oct. 20, 2019 Rise Set
Actual Time 7:47 AM CDT 6:40 PM CDT
Civil Twilight 7:19 AM CDT 7:08 PM CDT
Nautical Twilight 6:46 AM CDT 7:41 PM CDT
Astronomical Twilight 6:14 AM CDT 8:13 PM CDT
Moon 11:47 PM CDT (10/20) 2:20 PM CDT (10/20)
Length of Visible Light 11h 49m
Length of Day
10h 52m
Waning Gibbous, 59% of the Moon is Illuminated
Oct 20
Waning Gibbous
Oct 21
Last Quarter
Oct 27
New
Nov 4
First Quarter
Nov 12
Full

Hourly Weather History & Observations

Time (CDT) Temp. Windchill Dew Point Humidity Pressure Visibility Wind Dir Wind Speed Gust Speed Precip Events Conditions
12:56 AM 50.0 °F - 34.0 °F 54% 29.73 in 10.0 mi South 11.5 mph - N/A   Clear
1:56 AM 50.0 °F - 34.0 °F 54% 29.72 in 10.0 mi South 11.5 mph - N/A   Clear
2:56 AM 50.0 °F - 34.0 °F 54% 29.73 in 10.0 mi South 10.4 mph - N/A   Clear
3:56 AM 46.9 °F - 34.0 °F 61% 29.72 in 10.0 mi South 12.7 mph - N/A   Clear
4:56 AM 46.0 °F 41.9 °F 34.0 °F 63% 29.71 in 10.0 mi SSE 8.1 mph - N/A   Clear
5:56 AM 46.0 °F 40.6 °F 35.1 °F 66% 29.71 in 10.0 mi SSE 11.5 mph - N/A   Clear
6:56 AM 48.0 °F - 37.0 °F 66% 29.71 in 10.0 mi SSE 9.2 mph - N/A   Clear
7:56 AM 50.0 °F - 37.9 °F 63% 29.69 in 10.0 mi SE 12.7 mph - N/A   Clear
8:56 AM 51.1 °F - 39.0 °F 63% 29.67 in 10.0 mi SE 13.8 mph 24.2 mph N/A   Clear
9:56 AM 54.0 °F - 41.0 °F 62% 29.69 in 10.0 mi SSE 15.0 mph 21.9 mph N/A   Partly Cloudy
10:56 AM 55.0 °F - 43.0 °F 64% 29.66 in 10.0 mi SE 16.1 mph - N/A   Overcast
11:56 AM 57.0 °F - 45.0 °F 64% 29.70 in 10.0 mi SSW 11.5 mph - N/A   Overcast
12:56 PM 57.0 °F - 46.0 °F 67% 29.67 in 10.0 mi SE 9.2 mph - 0.00 in Rain Light Rain
1:56 PM 59.0 °F - 45.0 °F 60% 29.60 in 10.0 mi SE 20.7 mph 29.9 mph 0.00 in   Overcast
2:56 PM 60.1 °F - 43.0 °F 53% 29.58 in 10.0 mi SE 21.9 mph 33.4 mph N/A   Overcast
3:56 PM 60.1 °F - 44.1 °F 55% 29.58 in 10.0 mi SE 21.9 mph 39.1 mph N/A   Mostly Cloudy
4:56 PM 60.1 °F - 44.1 °F 55% 29.56 in 10.0 mi SE 18.4 mph 29.9 mph N/A   Overcast
5:56 PM 57.9 °F - 44.1 °F 60% 29.55 in 10.0 mi SE 17.3 mph 31.1 mph 0.00 in Rain Light Rain
6:56 PM 55.0 °F - 46.9 °F 74% 29.56 in 10.0 mi SSE 13.8 mph - 0.01 in Rain Light Rain
7:38 PM 54.0 °F - 48.0 °F 80% 29.56 in 10.0 mi SE 15.0 mph 25.3 mph 0.00 in   Overcast
7:56 PM 53.1 °F - 46.9 °F 80% 29.54 in 10.0 mi SSE 16.1 mph - 0.00 in   Mostly Cloudy
8:56 PM 53.1 °F - 46.9 °F 80% 29.55 in 10.0 mi SSE 10.4 mph - N/A   Scattered Clouds
9:56 PM 52.0 °F - 46.0 °F 80% 29.52 in 10.0 mi SSE 13.8 mph - N/A   Clear
10:56 PM 50.0 °F - 45.0 °F 83% 29.51 in 10.0 mi SSE 10.4 mph - N/A   Clear
11:56 PM 46.9 °F - 41.0 °F 80% 29.47 in 10.0 mi South 8.1 mph - N/A   Clear